OAS9531 SKCG-SKBO

Flight info

Callsign OAS9531
Flight time 1h 34m
Altitude 33000
Route ESKAB2A AKPEK UQ121 ISVAT ISVAT5W
Aircraft A320/M-SDE3FGHIRWY/LB1

Departure

Time 2026-04-24 03:26
Airport Rafael Nuñez International Airport (SKCG)

Arrival

Time 2026-04-24 05:00
Airport El Dorado International Airport (SKBO)
Time Latitude Longitude Altitude Speed Heading
2026-04-24 03:03 10.44649 -75.51546 51 ft 0 kts 272°
2026-04-24 03:13 10.44649 -75.51545 25 ft 3 kts 272°
2026-04-24 03:14 10.44645 -75.51508 49 ft 5 kts 283°
2026-04-24 03:14 10.44633 -75.51470 49 ft 5 kts 287°
2026-04-24 03:14 10.44630 -75.51445 47 ft 2 kts 258°
2026-04-24 03:14 10.44635 -75.51429 50 ft 1 kts 248°
2026-04-24 03:17 10.44625 -75.51444 47 ft 7 kts 230°
2026-04-24 03:17 10.44615 -75.51451 46 ft 1 kts 208°
2026-04-24 03:18 10.44612 -75.51452 47 ft 1 kts 202°
2026-04-24 03:18 10.44582 -75.51452 51 ft 5 kts 163°
2026-04-24 03:18 10.44560 -75.51430 50 ft 4 kts 116°
2026-04-24 03:18 10.44556 -75.51410 51 ft 2 kts 98°
2026-04-24 03:19 10.44556 -75.51398 51 ft 1 kts 94°
2026-04-24 03:19 10.44555 -75.51395 51 ft 1 kts 94°
2026-04-24 03:19 10.44551 -75.51350 51 ft 12 kts 98°
2026-04-24 03:19 10.44482 -75.51279 51 ft 20 kts 185°
2026-04-24 03:20 10.44316 -75.51286 51 ft 28 kts 180°
2026-04-24 03:20 10.44119 -75.51294 51 ft 29 kts 182°
2026-04-24 03:20 10.43951 -75.51301 51 ft 24 kts 181°
2026-04-24 03:20 10.43782 -75.51308 50 ft 25 kts 183°
2026-04-24 03:21 10.43603 -75.51317 51 ft 26 kts 182°
2026-04-24 03:21 10.43417 -75.51326 51 ft 27 kts 181°
2026-04-24 03:21 10.43277 -75.51328 51 ft 13 kts 180°
2026-04-24 03:21 10.43207 -75.51295 51 ft 10 kts 136°
2026-04-24 03:22 10.43159 -75.51248 51 ft 9 kts 136°
2026-04-24 03:22 10.43111 -75.51233 51 ft 7 kts 180°
2026-04-24 03:22 10.43077 -75.51245 50 ft 0 kts 224°
2026-04-24 03:23 10.43069 -75.51276 51 ft 7 kts 268°
2026-04-24 03:24 10.43079 -75.51321 49 ft 6 kts 302°
2026-04-24 03:24 10.43107 -75.51333 51 ft 4 kts 358°
2026-04-24 03:24 10.43116 -75.51333 51 ft 0 kts
2026-04-24 03:25 10.43146 -75.51333 51 ft 26 kts
2026-04-24 03:25 10.43602 -75.51313 49 ft 101 kts
2026-04-24 03:25 10.44506 -75.51278 55 ft 156 kts
2026-04-24 03:25 10.45611 -75.51230 577 ft 160 kts
2026-04-24 03:26 10.46733 -75.51184 1179 ft 163 kts
2026-04-24 03:26 10.47877 -75.51139 1795 ft 167 kts
2026-04-24 03:26 10.49084 -75.51092 2226 ft 181 kts
2026-04-24 03:26 10.50357 -75.51269 2599 ft 192 kts 329°
2026-04-24 03:27 10.51191 -75.52304 3040 ft 197 kts 283°
2026-04-24 03:27 10.51117 -75.53693 3433 ft 205 kts 244°
2026-04-24 03:27 10.50228 -75.54849 3803 ft 217 kts 224°
2026-04-24 03:27 10.49116 -75.55974 4141 ft 234 kts 224°
2026-04-24 03:28 10.47913 -75.57183 4533 ft 253 kts 224°
2026-04-24 03:28 10.46631 -75.58488 5010 ft 269 kts 225°
2026-04-24 03:28 10.45293 -75.59863 5681 ft 276 kts 225°
2026-04-24 03:28 10.43798 -75.61093 6460 ft 278 kts 210°
2026-04-24 03:29 10.42016 -75.61857 7189 ft 280 kts 194°
2026-04-24 03:29 10.40074 -75.62120 7913 ft 284 kts 184°
2026-04-24 03:29 10.38088 -75.62271 8627 ft 288 kts 185°
2026-04-24 03:29 10.36080 -75.62428 9348 ft 291 kts 185°
2026-04-24 03:30 10.34046 -75.62589 10039 ft 295 kts 185°
2026-04-24 03:30 10.31972 -75.62758 10515 ft 306 kts 185°
2026-04-24 03:30 10.29791 -75.62940 10825 ft 323 kts 185°
2026-04-24 03:30 10.27494 -75.63133 11112 ft 339 kts 185°
2026-04-24 03:31 10.25093 -75.63332 11459 ft 352 kts 185°
2026-04-24 03:31 10.22629 -75.63533 12023 ft 357 kts 185°
2026-04-24 03:31 10.20149 -75.63736 12656 ft 359 kts 185°
2026-04-24 03:31 10.17638 -75.63938 13284 ft 362 kts 185°
2026-04-24 03:32 10.15115 -75.64140 13885 ft 365 kts 185°
2026-04-24 03:32 10.12577 -75.64343 14406 ft 368 kts 185°
2026-04-24 03:32 10.10013 -75.64550 14926 ft 371 kts 185°
2026-04-24 03:32 10.07434 -75.64761 15445 ft 374 kts 185°
2026-04-24 03:33 10.04825 -75.64977 15962 ft 377 kts 185°
2026-04-24 03:33 10.02208 -75.65194 16463 ft 380 kts 185°
2026-04-24 03:33 9.99555 -75.65413 16972 ft 383 kts 185°
2026-04-24 03:33 9.96894 -75.65632 17474 ft 385 kts 185°
2026-04-24 03:34 9.94210 -75.65849 17971 ft 388 kts 184°
2026-04-24 03:34 9.91505 -75.66064 18429 ft 391 kts 184°
2026-04-24 03:34 9.88782 -75.66282 18842 ft 394 kts 184°
2026-04-24 03:34 9.86040 -75.66504 19270 ft 397 kts 185°
2026-04-24 03:35 9.83282 -75.66732 19697 ft 400 kts 185°
2026-04-24 03:35 9.80497 -75.66961 20123 ft 402 kts 185°
2026-04-24 03:35 9.77696 -75.67188 20535 ft 405 kts 185°
2026-04-24 03:35 9.74879 -75.67415 20969 ft 408 kts 185°
2026-04-24 03:36 9.72044 -75.67645 21377 ft 410 kts 185°
2026-04-24 03:36 9.69187 -75.67879 21775 ft 413 kts 185°
2026-04-24 03:36 9.66311 -75.68113 22169 ft 416 kts 185°
2026-04-24 03:36 9.63416 -75.68348 22552 ft 418 kts 185°
2026-04-24 03:37 9.60506 -75.68583 22925 ft 421 kts 185°
2026-04-24 03:37 9.57579 -75.68818 23291 ft 424 kts 185°
2026-04-24 03:37 9.54668 -75.69053 23623 ft 426 kts 185°
2026-04-24 03:37 9.51707 -75.69291 23913 ft 428 kts 185°
2026-04-24 03:38 9.48729 -75.69532 24215 ft 430 kts 185°
2026-04-24 03:38 9.45738 -75.69774 24514 ft 432 kts 185°
2026-04-24 03:38 9.42736 -75.70018 24800 ft 434 kts 185°
2026-04-24 03:38 9.39729 -75.70262 25090 ft 436 kts 185°
2026-04-24 03:39 9.36696 -75.70507 25375 ft 437 kts 185°
2026-04-24 03:39 9.33662 -75.70753 25654 ft 439 kts 185°
2026-04-24 03:39 9.30607 -75.71000 25925 ft 441 kts 185°
2026-04-24 03:39 9.27544 -75.71247 26192 ft 442 kts 185°
2026-04-24 03:40 9.24473 -75.71494 26458 ft 444 kts 185°
2026-04-24 03:40 9.21384 -75.71744 26727 ft 446 kts 185°
2026-04-24 03:40 9.18283 -75.71995 26986 ft 448 kts 185°
2026-04-24 03:40 9.15182 -75.72248 27242 ft 449 kts 185°
2026-04-24 03:41 9.12050 -75.72505 27498 ft 451 kts 185°
2026-04-24 03:41 9.08921 -75.72762 27745 ft 453 kts 185°
2026-04-24 03:41 9.05777 -75.73017 27986 ft 454 kts 185°
2026-04-24 03:41 9.02623 -75.73272 28225 ft 456 kts 185°
2026-04-24 03:42 8.99460 -75.73526 28459 ft 457 kts 185°
2026-04-24 03:42 8.96275 -75.73783 28695 ft 459 kts 185°
2026-04-24 03:42 8.93100 -75.74041 28912 ft 460 kts 185°
2026-04-24 03:42 8.89894 -75.74301 29125 ft 462 kts 185°
2026-04-24 03:43 8.86690 -75.74557 29328 ft 463 kts 185°
2026-04-24 03:43 8.83474 -75.74812 29532 ft 465 kts 185°
2026-04-24 03:43 8.80244 -75.75067 29739 ft 466 kts 185°
2026-04-24 03:43 8.77014 -75.75327 29936 ft 467 kts 185°
2026-04-24 03:44 8.73762 -75.75589 30111 ft 468 kts 185°
2026-04-24 03:44 8.70517 -75.75853 30279 ft 469 kts 185°
2026-04-24 03:44 8.67266 -75.76117 30476 ft 469 kts 185°
2026-04-24 03:44 8.64026 -75.76381 30726 ft 467 kts 185°
2026-04-24 03:45 8.60785 -75.76644 30981 ft 465 kts 185°
2026-04-24 03:45 8.57573 -75.76905 31228 ft 464 kts 185°
2026-04-24 03:45 8.54357 -75.77166 31471 ft 463 kts 185°
2026-04-24 03:45 8.51156 -75.77423 31715 ft 461 kts 185°
2026-04-24 03:46 8.47949 -75.77680 31956 ft 460 kts 185°
2026-04-24 03:46 8.44761 -75.77936 32199 ft 459 kts 185°
2026-04-24 03:46 8.41579 -75.78192 32439 ft 458 kts 185°
2026-04-24 03:46 8.38405 -75.78448 32676 ft 457 kts 185°
2026-04-24 03:47 8.35248 -75.78700 32898 ft 456 kts 185°
2026-04-24 03:47 8.28953 -75.79203 32979 ft 450 kts 185°
2026-04-24 03:48 8.22712 -75.79710 32982 ft 450 kts 185°
2026-04-24 03:48 8.16464 -75.80214 32984 ft 450 kts 185°
2026-04-24 03:49 8.10224 -75.80717 32986 ft 450 kts 184°
2026-04-24 03:49 8.03975 -75.81221 32987 ft 451 kts 184°
2026-04-24 03:50 7.97726 -75.81373 32989 ft 450 kts 173°
2026-04-24 03:50 7.91562 -75.80200 32983 ft 451 kts 169°
2026-04-24 03:51 7.85407 -75.78974 32988 ft 451 kts 169°
2026-04-24 03:51 7.79254 -75.77759 32996 ft 451 kts 169°
2026-04-24 03:52 7.73096 -75.76532 33012 ft 451 kts 169°
2026-04-24 03:52 7.66945 -75.75303 33020 ft 451 kts 169°
2026-04-24 03:53 7.60790 -75.74076 33024 ft 450 kts 169°
2026-04-24 03:53 7.54638 -75.72858 33031 ft 451 kts 169°
2026-04-24 03:54 7.48530 -75.71653 33038 ft 451 kts 169°
2026-04-24 03:54 7.42369 -75.70432 33061 ft 451 kts 169°
2026-04-24 03:55 7.36234 -75.69207 33070 ft 450 kts 168°
2026-04-24 03:55 7.30077 -75.67977 33078 ft 451 kts 169°
2026-04-24 03:56 7.23925 -75.66756 33086 ft 451 kts 169°
2026-04-24 03:56 7.17766 -75.65533 33094 ft 451 kts 169°
2026-04-24 03:57 7.11604 -75.64309 33110 ft 451 kts 169°
2026-04-24 03:57 7.05440 -75.63090 33118 ft 451 kts 169°
2026-04-24 03:58 6.99277 -75.61868 33123 ft 451 kts 169°
2026-04-24 03:58 6.93115 -75.60645 33125 ft 452 kts 169°
2026-04-24 03:59 6.86943 -75.59418 33127 ft 452 kts 169°
2026-04-24 03:59 6.80777 -75.58197 33137 ft 451 kts 169°
2026-04-24 04:00 6.74613 -75.56976 33135 ft 451 kts 169°
2026-04-24 04:00 6.68454 -75.55761 33126 ft 451 kts 169°
2026-04-24 04:01 6.62302 -75.54543 33130 ft 451 kts 168°
2026-04-24 04:01 6.56151 -75.53319 33135 ft 451 kts 168°
2026-04-24 04:02 6.49997 -75.52099 33157 ft 451 kts 169°
2026-04-24 04:02 6.43830 -75.50888 33187 ft 451 kts 168°
2026-04-24 04:03 6.37669 -75.49670 33214 ft 451 kts 168°
2026-04-24 04:03 6.31504 -75.48450 33235 ft 452 kts 168°
2026-04-24 04:04 6.25332 -75.47227 33375 ft 452 kts 168°
2026-04-24 04:04 6.19172 -75.46006 33382 ft 452 kts 168°
2026-04-24 04:05 6.13043 -75.44791 33378 ft 452 kts 168°
2026-04-24 04:05 6.06869 -75.43573 33372 ft 452 kts 168°
2026-04-24 04:06 6.00768 -75.42130 33323 ft 451 kts 159°
2026-04-24 04:06 5.95372 -75.38980 33277 ft 451 kts 139°
2026-04-24 04:07 5.90933 -75.34514 33236 ft 452 kts 134°
2026-04-24 04:07 5.86544 -75.29994 33192 ft 452 kts 135°
2026-04-24 04:08 5.82186 -75.25534 32871 ft 456 kts 135°
2026-04-24 04:08 5.80716 -75.24028 32148 ft 460 kts 135°
2026-04-24 04:08 5.78477 -75.21736 31254 ft 453 kts 135°
2026-04-24 04:08 5.76299 -75.19504 30752 ft 446 kts 135°
2026-04-24 04:09 5.74129 -75.17279 30113 ft 443 kts 135°
2026-04-24 04:09 5.71977 -75.15075 29454 ft 440 kts 135°
2026-04-24 04:09 5.69680 -75.13097 28865 ft 435 kts 145°
2026-04-24 04:09 5.67098 -75.11543 28273 ft 430 kts 155°
2026-04-24 04:10 5.64345 -75.10378 27684 ft 427 kts 158°
2026-04-24 04:10 5.61607 -75.09264 27102 ft 424 kts 158°
2026-04-24 04:10 5.58889 -75.08150 26531 ft 421 kts 158°
2026-04-24 04:11 5.53500 -75.05929 25410 ft 417 kts 158°
2026-04-24 04:11 5.50817 -75.04821 24845 ft 415 kts 158°
2026-04-24 04:11 5.48162 -75.03722 24309 ft 413 kts 158°
2026-04-24 04:11 5.45507 -75.02622 23758 ft 411 kts 158°
2026-04-24 04:12 5.42867 -75.01532 23180 ft 409 kts 158°
2026-04-24 04:12 5.40246 -75.00455 22674 ft 405 kts 158°
2026-04-24 04:12 5.37667 -74.99394 22366 ft 396 kts 158°
2026-04-24 04:12 5.35141 -74.98341 21833 ft 394 kts 158°
2026-04-24 04:13 5.32630 -74.97277 21403 ft 389 kts 158°
2026-04-24 04:13 5.30157 -74.96222 20926 ft 385 kts 158°
2026-04-24 04:13 5.27704 -74.95176 20288 ft 378 kts 158°
2026-04-24 04:13 5.25294 -74.94150 19476 ft 375 kts 158°
2026-04-24 04:14 5.22934 -74.93086 18743 ft 370 kts 151°
2026-04-24 04:14 5.20883 -74.91607 18373 ft 354 kts 137°
2026-04-24 04:14 5.19261 -74.89805 17891 ft 343 kts 126°
2026-04-24 04:14 5.18047 -74.87783 17411 ft 336 kts 120°
2026-04-24 04:15 5.16896 -74.85749 16965 ft 333 kts 120°
2026-04-24 04:15 5.15748 -74.83737 16626 ft 331 kts 120°
2026-04-24 04:15 5.14590 -74.81738 16599 ft 332 kts 121°
2026-04-24 04:15 5.13422 -74.79744 16623 ft 332 kts 121°
2026-04-24 04:16 5.12249 -74.77746 16646 ft 333 kts 121°
2026-04-24 04:16 5.11076 -74.75749 16633 ft 332 kts 121°
2026-04-24 04:16 5.09914 -74.73757 16369 ft 330 kts 121°
2026-04-24 04:16 5.08762 -74.71774 16150 ft 329 kts 120°
2026-04-24 04:17 5.07615 -74.69794 15924 ft 327 kts 120°
2026-04-24 04:17 5.06477 -74.67825 15709 ft 326 kts 120°
2026-04-24 04:17 5.05342 -74.65859 15491 ft 325 kts 120°
2026-04-24 04:17 5.04216 -74.63904 15283 ft 323 kts 120°
2026-04-24 04:18 5.03094 -74.61960 15066 ft 322 kts 120°
2026-04-24 04:18 5.01974 -74.60025 14857 ft 321 kts 120°
2026-04-24 04:18 5.00855 -74.58093 14646 ft 319 kts 120°
2026-04-24 04:18 4.99740 -74.56170 14420 ft 318 kts 120°
2026-04-24 04:19 4.98631 -74.54257 14199 ft 317 kts 120°
2026-04-24 04:19 4.97524 -74.52349 13970 ft 316 kts 120°
2026-04-24 04:19 4.96421 -74.50449 13731 ft 315 kts 120°
2026-04-24 04:19 4.95327 -74.48562 13507 ft 311 kts 120°
2026-04-24 04:20 4.94251 -74.46705 13293 ft 304 kts 120°
2026-04-24 04:20 4.93204 -74.44898 13093 ft 297 kts 120°
2026-04-24 04:20 4.92191 -74.43151 12989 ft 288 kts 120°
2026-04-24 04:20 4.91068 -74.41506 12878 ft 287 kts 132°
2026-04-24 04:21 4.89595 -74.40154 12744 ft 286 kts 141°
2026-04-24 04:21 4.88074 -74.38890 12606 ft 284 kts 140°
2026-04-24 04:21 4.86610 -74.37581 12469 ft 277 kts 130°
2026-04-24 04:21 4.85512 -74.36039 12335 ft 267 kts 125°
2026-04-24 04:22 4.84631 -74.34839 12230 ft 258 kts 127°
2026-04-24 04:22 4.83561 -74.33438 12122 ft 247 kts 127°
2026-04-24 04:22 4.82537 -74.32092 11972 ft 242 kts 127°
2026-04-24 04:22 4.81542 -74.30778 11686 ft 230 kts 127°
2026-04-24 04:23 4.80589 -74.29520 11419 ft 223 kts 127°
2026-04-24 04:23 4.79663 -74.28296 11151 ft 218 kts 127°
2026-04-24 04:23 4.78755 -74.27096 10893 ft 214 kts 127°
2026-04-24 04:23 4.77866 -74.25922 10633 ft 206 kts 127°
2026-04-24 04:24 4.77033 -74.24822 10407 ft 189 kts 126°
2026-04-24 04:24 4.76283 -74.23832 10183 ft 173 kts 126°
2026-04-24 04:24 4.75563 -74.22880 9953 ft 171 kts 126°
2026-04-24 04:24 4.74847 -74.21934 9726 ft 170 kts 126°
2026-04-24 04:25 4.74134 -74.20992 9505 ft 170 kts 127°
2026-04-24 04:25 4.73421 -74.20050 9245 ft 169 kts 127°
2026-04-24 04:25 4.72716 -74.19119 8997 ft 168 kts 127°
2026-04-24 04:25 4.72012 -74.18189 8740 ft 167 kts 127°
2026-04-24 04:26 4.71307 -74.17265 8515 ft 167 kts 127°
2026-04-24 04:26 4.70760 -74.16538 8388 ft 163 kts 126°
2026-04-24 04:26 4.70118 -74.15673 8506 ft 164 kts 128°
2026-04-24 04:26 4.69332 -74.14689 8782 ft 197 kts 128°
2026-04-24 04:27 4.68484 -74.13528 9049 ft 228 kts 125°
2026-04-24 04:27 4.67430 -74.12352 9245 ft 224 kts 144°
2026-04-24 04:27 4.65971 -74.11907 9459 ft 225 kts 186°
2026-04-24 04:27 4.64519 -74.12463 9714 ft 227 kts 214°
2026-04-24 04:28 4.63264 -74.13424 10099 ft 228 kts 221°
2026-04-24 04:28 4.62062 -74.14476 10443 ft 230 kts 221°
2026-04-24 04:28 4.61038 -74.15695 10737 ft 230 kts 248°
2026-04-24 04:28 4.60776 -74.17254 11105 ft 229 kts 270°
2026-04-24 04:29 4.60738 -74.18865 11369 ft 232 kts 268°
2026-04-24 04:29 4.60671 -74.20489 11671 ft 234 kts 268°
2026-04-24 04:29 4.60588 -74.22126 11978 ft 236 kts 267°
2026-04-24 04:29 4.60501 -74.23770 12287 ft 237 kts 267°
2026-04-24 04:30 4.60411 -74.25425 12581 ft 239 kts 267°
2026-04-24 04:30 4.60320 -74.27092 12876 ft 240 kts 267°
2026-04-24 04:30 4.60229 -74.28750 12974 ft 241 kts 267°
2026-04-24 04:30 4.60130 -74.30432 12988 ft 242 kts 266°
2026-04-24 04:31 4.60026 -74.32112 12980 ft 242 kts 266°
2026-04-24 04:31 4.59923 -74.33789 12974 ft 243 kts 266°
2026-04-24 04:31 4.59817 -74.35534 12948 ft 259 kts 266°
2026-04-24 04:31 4.59704 -74.37398 12939 ft 276 kts 266°
2026-04-24 04:32 4.59586 -74.39348 12944 ft 282 kts 266°
2026-04-24 04:32 4.59469 -74.41305 12932 ft 282 kts 266°
2026-04-24 04:32 4.59351 -74.43264 12917 ft 282 kts 266°
2026-04-24 04:32 4.59234 -74.45221 12905 ft 282 kts 266°
2026-04-24 04:33 4.59116 -74.47184 12890 ft 282 kts 267°
2026-04-24 04:33 4.59294 -74.49122 12879 ft 281 kts 289°
2026-04-24 04:33 4.60138 -74.50884 12870 ft 282 kts 304°
2026-04-24 04:33 4.61480 -74.52301 12866 ft 282 kts 326°
2026-04-24 04:34 4.63268 -74.53083 12865 ft 283 kts 349°
2026-04-24 04:34 4.65233 -74.53235 12866 ft 284 kts 357°
2026-04-24 04:34 4.67202 -74.53312 12865 ft 284 kts 357°
2026-04-24 04:34 4.69180 -74.53384 12865 ft 284 kts 357°
2026-04-24 04:35 4.71152 -74.53456 12864 ft 284 kts 357°
2026-04-24 04:35 4.73128 -74.53529 12865 ft 284 kts 357°
2026-04-24 04:35 4.75099 -74.53604 12868 ft 284 kts 357°
2026-04-24 04:35 4.77070 -74.53680 12862 ft 284 kts 357°
2026-04-24 04:36 4.79047 -74.53756 12864 ft 284 kts 357°
2026-04-24 04:36 4.81013 -74.53832 12852 ft 284 kts 357°
2026-04-24 04:36 4.82988 -74.53886 12859 ft 284 kts
2026-04-24 04:36 4.84909 -74.53455 12861 ft 284 kts 24°
2026-04-24 04:37 4.86553 -74.52375 12862 ft 285 kts 44°
2026-04-24 04:37 4.87719 -74.50781 12868 ft 285 kts 65°
2026-04-24 04:37 4.88450 -74.48930 12869 ft 286 kts 69°
2026-04-24 04:37 4.89161 -74.47066 12875 ft 286 kts 69°
2026-04-24 04:38 4.89868 -74.45222 12869 ft 286 kts 70°
2026-04-24 04:38 4.90257 -74.43278 12892 ft 285 kts 90°
2026-04-24 04:38 4.89948 -74.41420 12886 ft 258 kts 111°
2026-04-24 04:38 4.89119 -74.39905 12743 ft 244 kts 130°
2026-04-24 04:39 4.87895 -74.38729 12607 ft 244 kts 141°
2026-04-24 04:39 4.86616 -74.37617 12476 ft 243 kts 131°
2026-04-24 04:39 4.85555 -74.36300 12351 ft 243 kts 127°
2026-04-24 04:39 4.84582 -74.34923 12226 ft 242 kts 123°
2026-04-24 04:40 4.83643 -74.33525 12127 ft 242 kts 126°
2026-04-24 04:40 4.82637 -74.32171 12063 ft 242 kts 128°
2026-04-24 04:40 4.81567 -74.30824 11985 ft 250 kts 129°
2026-04-24 04:40 4.80509 -74.29498 11818 ft 235 kts 127°
2026-04-24 04:41 4.79501 -74.28252 11549 ft 223 kts 127°
2026-04-24 04:41 4.78600 -74.27080 11526 ft 204 kts 126°
2026-04-24 04:41 4.77759 -74.25916 11167 ft 209 kts 123°
2026-04-24 04:41 4.76924 -74.24700 10725 ft 214 kts 123°
2026-04-24 04:42 4.76049 -74.23467 10295 ft 220 kts 124°
2026-04-24 04:42 4.75100 -74.22266 9938 ft 218 kts 129°
2026-04-24 04:42 4.74130 -74.21133 9713 ft 209 kts 128°
2026-04-24 04:42 4.73307 -74.20023 9599 ft 187 kts 126°
2026-04-24 04:43 4.72589 -74.19010 9474 ft 168 kts 123°
2026-04-24 04:43 4.71939 -74.18113 9291 ft 160 kts 126°
2026-04-24 04:43 4.71202 -74.17201 9736 ft 173 kts 128°
2026-04-24 04:43 4.70443 -74.16195 10332 ft 187 kts 124°
2026-04-24 04:44 4.69690 -74.15113 10896 ft 187 kts 124°
2026-04-24 04:44 4.68928 -74.14020 11161 ft 198 kts 125°
2026-04-24 04:44 4.68091 -74.12856 11340 ft 214 kts 128°
2026-04-24 04:44 4.66894 -74.11917 11492 ft 229 kts 163°
2026-04-24 04:45 4.65292 -74.11954 11703 ft 241 kts 202°
2026-04-24 04:45 4.63814 -74.12830 11982 ft 255 kts 219°
2026-04-24 04:45 4.62448 -74.13992 12523 ft 259 kts 223°
2026-04-24 04:45 4.61338 -74.15405 12902 ft 259 kts 246°
2026-04-24 04:46 4.60825 -74.17139 12988 ft 270 kts 264°
2026-04-24 04:46 4.60754 -74.19128 13003 ft 300 kts 268°
2026-04-24 04:46 4.60675 -74.21250 13007 ft 306 kts 267°
2026-04-24 04:46 4.60561 -74.23369 13009 ft 306 kts 266°
2026-04-24 04:47 4.60434 -74.25500 13003 ft 306 kts 266°
2026-04-24 04:47 4.60305 -74.27603 12999 ft 306 kts 266°
2026-04-24 04:47 4.60176 -74.29757 12988 ft 306 kts 266°
2026-04-24 04:47 4.60053 -74.31885 12981 ft 306 kts 266°
2026-04-24 04:48 4.59936 -74.34008 12980 ft 306 kts 267°
2026-04-24 04:48 4.59822 -74.36114 12960 ft 306 kts 267°
2026-04-24 04:48 4.59707 -74.38237 12957 ft 305 kts 267°
2026-04-24 04:48 4.59592 -74.40366 12936 ft 306 kts 267°
2026-04-24 04:49 4.59477 -74.42486 12922 ft 306 kts 267°
2026-04-24 04:49 4.59365 -74.44614 12915 ft 305 kts 269°
2026-04-24 04:49 4.59713 -74.46687 12896 ft 305 kts 295°
2026-04-24 04:49 4.61037 -74.48322 12889 ft 305 kts 326°
2026-04-24 04:50 4.62997 -74.49110 12890 ft 307 kts 347°
2026-04-24 04:50 4.65092 -74.49562 12887 ft 308 kts 347°
2026-04-24 04:50 4.67185 -74.49996 12873 ft 307 kts 348°
2026-04-24 04:50 4.69278 -74.50426 12885 ft 307 kts 348°
2026-04-24 04:51 4.71372 -74.50857 12875 ft 307 kts 348°
2026-04-24 04:51 4.73463 -74.51291 12877 ft 307 kts 348°
2026-04-24 04:51 4.75557 -74.51732 12872 ft 307 kts 347°
2026-04-24 04:51 4.77648 -74.52172 12864 ft 307 kts 347°
2026-04-24 04:52 4.79735 -74.52612 12869 ft 307 kts 348°
2026-04-24 04:52 4.81825 -74.53051 12866 ft 307 kts 349°
2026-04-24 04:52 4.83944 -74.53094 12862 ft 307 kts 10°
2026-04-24 04:52 4.85936 -74.52329 12867 ft 307 kts 33°
2026-04-24 04:53 4.87455 -74.50912 12869 ft 292 kts 54°
2026-04-24 04:53 4.88373 -74.49140 12878 ft 287 kts 69°
2026-04-24 04:53 4.88846 -74.47899 12874 ft 287 kts 69°
2026-04-24 04:53 4.89571 -74.46010 12882 ft 287 kts 69°
2026-04-24 04:54 4.90030 -74.44098 12885 ft 287 kts 86°
2026-04-24 04:54 4.89884 -74.42114 12905 ft 287 kts 104°
2026-04-24 04:54 4.89154 -74.40270 12777 ft 282 kts 122°
2026-04-24 04:54 4.87947 -74.38775 12614 ft 272 kts 139°
2026-04-24 04:55 4.86534 -74.37535 12484 ft 276 kts 133°
2026-04-24 04:55 4.85276 -74.36060 12504 ft 271 kts 126°
2026-04-24 04:55 4.84215 -74.34576 12556 ft 253 kts 123°
2026-04-24 04:55 4.83246 -74.33148 12410 ft 244 kts 123°
2026-04-24 04:56 4.82268 -74.31765 12088 ft 243 kts 126°
2026-04-24 04:56 4.81237 -74.30412 11741 ft 244 kts 127°
2026-04-24 04:56 4.80163 -74.29084 11341 ft 247 kts 128°
2026-04-24 04:56 4.79113 -74.27745 11121 ft 242 kts 125°
2026-04-24 04:57 4.78122 -74.26394 10840 ft 240 kts 124°
2026-04-24 04:57 4.77158 -74.25041 10496 ft 235 kts 124°
2026-04-24 04:57 4.76196 -74.23761 10224 ft 222 kts 127°
2026-04-24 04:57 4.75280 -74.22600 9971 ft 206 kts 126°
2026-04-24 04:58 4.74467 -74.21496 9767 ft 184 kts 124°
2026-04-24 04:58 4.73743 -74.20509 9472 ft 171 kts 126°
2026-04-24 04:58 4.73014 -74.19577 9128 ft 166 kts 126°
2026-04-24 04:58 4.72349 -74.18666 8862 ft 157 kts 125°
2026-04-24 04:59 4.71731 -74.17808 8611 ft 154 kts 124°
2026-04-24 04:59 4.71082 -74.16951 8413 ft 148 kts 126°
2026-04-24 04:59 4.70515 -74.16204 8374 ft 107 kts 130°
2026-04-24 04:59 4.70187 -74.15767 8371 ft 54 kts 127°
2026-04-24 05:00 4.70041 -74.15564 8372 ft 19 kts 93°
2026-04-24 05:00 4.70068 -74.15520 8371 ft 7 kts 41°
2026-04-24 05:00 4.70132 -74.15468 8370 ft 16 kts 38°
2026-04-24 05:00 4.70149 -74.15455 8370 ft 0 kts 38°
2026-04-24 05:01 4.70156 -74.15448 8371 ft 6 kts 40°
2026-04-24 05:01 4.70162 -74.15383 8371 ft 15 kts 123°
2026-04-24 05:02 4.70093 -74.15288 8370 ft 17 kts 127°
2026-04-24 05:02 4.70020 -74.15191 8371 ft 18 kts 126°
2026-04-24 05:02 4.69943 -74.15090 8371 ft 19 kts 127°
2026-04-24 05:02 4.69863 -74.14983 8370 ft 20 kts 127°
2026-04-24 05:03 4.69822 -74.14875 8371 ft 15 kts 49°
2026-04-24 05:03 4.69897 -74.14799 8370 ft 15 kts 72°
2026-04-24 05:03 4.69851 -74.14713 8371 ft 15 kts 126°
2026-04-24 05:03 4.69813 -74.14625 8361 ft 14 kts 74°
2026-04-24 05:04 4.69826 -74.14594 8370 ft 0 kts 67°